TimePDT,TemperatureF,Dew PointF,Humidity,Sea Level PressureIn,VisibilityMPH,Wind Direction,Wind SpeedMPH,Gust SpeedMPH,PrecipitationIn,Events,Conditions,WindDirDegrees,DateUTC
12:56 AM,28.9,16.0,58,29.88,10.0,Calm,Calm,-,N/A,,Clear,0,2012-10-24 07:56:00
1:56 AM,32.0,19.0,59,29.88,10.0,SSW,4.6,-,N/A,,Clear,210,2012-10-24 08:56:00
2:56 AM,28.9,19.9,69,29.88,10.0,Calm,Calm,-,N/A,,Clear,0,2012-10-24 09:56:00
3:56 AM,27.0,16.0,63,29.87,10.0,South,5.8,-,N/A,,Partly Cloudy,170,2012-10-24 10:56:00
4:56 AM,28.0,18.0,66,29.88,10.0,Calm,Calm,-,N/A,,Clear,0,2012-10-24 11:56:00
5:56 AM,26.1,15.1,63,29.89,10.0,Calm,Calm,-,N/A,,Scattered Clouds,0,2012-10-24 12:56:00
6:15 AM,28.4,15.8,59,29.97,10.0,SE,6.9,-,N/A,,Mostly Cloudy,130,2012-10-24 13:15:00
6:56 AM,26.1,15.1,63,29.89,10.0,ESE,5.8,-,N/A,,Mostly Cloudy,120,2012-10-24 13:56:00
7:56 AM,30.9,17.1,57,29.91,10.0,SE,9.2,-,N/A,,Scattered Clouds,140,2012-10-24 14:56:00
8:56 AM,39.0,19.0,45,29.93,10.0,SSE,5.8,-,N/A,,Mostly Cloudy,150,2012-10-24 15:56:00
9:56 AM,46.0,19.0,34,29.93,10.0,SSW,10.4,-,N/A,,Mostly Cloudy,210,2012-10-24 16:56:00
10:56 AM,48.9,19.9,32,29.94,10.0,South,4.6,-,N/A,,Mostly Cloudy,180,2012-10-24 17:56:00
11:56 AM,52.0,21.9,31,29.93,10.0,WSW,9.2,23.0,N/A,,Scattered Clouds,240,2012-10-24 18:56:00
12:56 PM,55.0,21.0,27,29.91,10.0,WSW,9.2,-,N/A,,Mostly Cloudy,240,2012-10-24 19:56:00
1:56 PM,55.0,23.0,29,29.91,10.0,West,17.3,26.5,N/A,,Mostly Cloudy,260,2012-10-24 20:56:00
2:56 PM,55.9,21.0,26,29.92,10.0,West,21.9,28.8,N/A,,Scattered Clouds,260,2012-10-24 21:56:00
3:56 PM,55.0,19.9,25,29.94,10.0,WSW,20.7,28.8,N/A,,Scattered Clouds,250,2012-10-24 22:56:00
4:56 PM,53.1,19.9,27,29.95,10.0,West,20.7,26.5,N/A,,Scattered Clouds,280,2012-10-24 23:56:00
5:56 PM,48.9,24.1,38,29.96,10.0,West,15.0,25.3,N/A,,Scattered Clouds,280,2012-10-25 00:56:00
6:56 PM,46.9,24.1,41,29.99,10.0,West,11.5,-,N/A,,Scattered Clouds,280,2012-10-25 01:56:00
7:56 PM,46.9,25.0,42,30.01,10.0,WNW,9.2,-,N/A,,Mostly Cloudy,300,2012-10-25 02:56:00
8:56 PM,44.1,28.9,55,30.03,10.0,NE,10.4,-,N/A,,Mostly Cloudy,50,2012-10-25 03:56:00
9:56 PM,42.1,28.9,60,30.03,10.0,NE,5.8,-,N/A,,Mostly Cloudy,50,2012-10-25 04:56:00
10:56 PM,42.1,30.0,62,30.05,10.0,NNE,6.9,-,N/A,,Overcast,30,2012-10-25 05:56:00
11:56 PM,41.0,30.0,65,30.05,10.0,Calm,Calm,-,N/A,,Mostly Cloudy,0,2012-10-25 06:56:00